| time (UTC) | temp F | wind direction | speed knots | gust knots | rain 1hr in | rain 24hr in | rain mn in | humidity % | barometer mb |
| 20260502181534 | 73 | 343 | 1.7 | 7.0 | 0.00 | 1.73 | 0.00 | 46 | 1018.2 |
| 20260502163024 | 70 | 25 | 1.7 | 6.1 | 0.00 | 2.76 | 0.00 | 58 | 1018.3 |
| 20260502161516 | 69 | 332 | 0.9 | 7.0 | 0.00 | 2.76 | 0.00 | 57 | 1018.3 |
| 20260502151505 | 66 | 316 | 0.9 | 6.1 | 0.00 | 2.80 | 0.00 | 69 | 1018.2 |
| 20260502123044 | 55 | 13 | 0.0 | 3.5 | 0.00 | 2.95 | 0.00 | 90 | 1016.5 |
| 20260502121532 | 54 | 349 | 0.0 | 3.5 | 0.00 | 2.95 | 0.00 | 91 | 1016.3 |
| 20260502114530 | 54 | 326 | 0.0 | 2.6 | 0.00 | 2.95 | 0.00 | 90 | 1016.1 |
| 20260502113033 | 54 | 349 | 0.0 | 1.7 | 0.00 | 2.95 | 0.00 | 89 | 1015.9 |
| 20260502111532 | 54 | 322 | 0.0 | 1.7 | 0.00 | 2.95 | 0.00 | 87 | 1015.8 |
| 20260502110027 | 54 | 105 | 0.0 | 1.7 | 0.00 | 2.95 | 0.00 | 86 | 1015.6 |
| 20260502104521 | 54 | 342 | 0.0 | 1.7 | 0.00 | 2.95 | 0.00 | 86 | 1015.4 |
| 20260502103020 | 54 | 325 | 0.0 | 1.7 | 0.00 | 2.95 | 0.00 | 87 | 1015.0 |
| 20260502101517 | 54 | 39 | 0.0 | 1.7 | 0.00 | 2.95 | 0.00 | 87 | 1014.7 |
| 20260502091510 | 55 | 305 | 0.0 | 2.6 | 0.00 | 2.95 | 0.00 | 87 | 1013.9 |
| 20260502071501 | 56 | 344 | 0.9 | 5.2 | 0.00 | 2.95 | 0.00 | 89 | 1013.8 |
| 20260502070101 | 57 | 325 | 0.9 | 6.1 | 0.00 | 2.95 | 0.00 | 90 | 1013.6 |
| 20260502064601 | 57 | 58 | 0.9 | 5.2 | 0.00 | 2.95 | 0.00 | 91 | 1013.5 |
| 20260502063122 | 57 | 57 | 0.9 | 4.3 | 0.00 | 2.95 | 0.00 | 92 | 1013.4 |
| 20260502061557 | 56 | 162 | 0.9 | 4.3 | 0.00 | 2.95 | 0.00 | 91 | 1013.4 |
| 20260502060059 | 56 | 326 | 0.9 | 4.3 | 0.00 | 2.95 | 0.00 | 92 | 1013.3 |
| 20260502054605 | 56 | 13 | 0.9 | 4.3 | 0.00 | 3.21 | 0.00 | 92 | 1013.4 |
| 20260502053101 | 56 | 232 | 0.9 | 4.3 | 0.00 | 3.21 | 0.00 | 93 | 1013.9 |
| 20260502051551 | 56 | 300 | 0.0 | 4.3 | 0.00 | 3.21 | 0.00 | 93 | 1013.6 |
| 20260502050048 | 56 | 34 | 0.9 | 5.2 | 0.00 | 3.21 | 0.00 | 93 | 1013.7 |
| 20260502044548 | 55 | 259 | 0.9 | 5.2 | 0.02 | 3.23 | 3.21 | 94 | 1013.7 |
| 20260502043046 | 55 | 51 | 0.9 | 4.3 | 0.02 | 3.23 | 3.21 | 94 | 1013.7 |
| 20260502041551 | 56 | 308 | 0.9 | 7.0 | 0.02 | 3.23 | 3.21 | 94 | 1013.6 |
| 20260502040042 | 56 | 352 | 0.0 | 3.5 | 0.02 | 3.23 | 3.21 | 94 | 1013.3 |
| 20260502034539 | 57 | 9 | 0.9 | 3.5 | 0.02 | 3.21 | 3.19 | 95 | 1012.8 |
| 20260502033040 | 57 | 304 | 0.0 | 5.2 | 0.03 | 3.21 | 3.19 | 95 | 1012.5 |
| 20260502031533 | 57 | 309 | 0.9 | 5.2 | 0.04 | 3.21 | 3.19 | 95 | 1012.1 |
| 20260502030031 | 57 | 351 | 0.9 | 4.3 | 0.05 | 3.21 | 3.19 | 95 | 1011.3 |
| 20260502024531 | 58 | 321 | 0.9 | 3.5 | 0.04 | 3.19 | 3.17 | 95 | 1011.8 |
| 20260502023033 | 58 | 327 | 1.7 | 3.5 | 0.04 | 3.18 | 3.16 | 95 | 1011.8 |
| 20260502021530 | 58 | 7 | 0.9 | 4.3 | 0.07 | 3.17 | 3.15 | 95 | 1011.7 |
| 20260502020027 | 58 | 356 | 0.0 | 3.5 | 0.06 | 3.16 | 3.14 | 95 | 1011.6 |
| 20260502014523 | 58 | 2 | 0.9 | 5.2 | 0.10 | 3.16 | 3.13 | 95 | 1011.2 |
| 20260502013021 | 59 | 32 | 0.9 | 4.3 | 0.20 | 3.14 | 3.11 | 95 | 1010.8 |
| 20260502011520 | 59 | 345 | 0.0 | 4.3 | 0.26 | 3.11 | 3.08 | 95 | 1010.3 |
| 20260502010020 | 59 | 1 | 0.9 | 4.3 | 0.32 | 3.11 | 3.08 | 95 | 1008.9 |
| 20260502004519 | 59 | 327 | 0.9 | 4.3 | 0.28 | 3.14 | 3.03 | 95 | 1009.0 |
| 20260502003018 | 59 | 39 | 0.9 | 3.5 | 0.18 | 3.02 | 2.91 | 95 | 1009.6 |
| 20260502001517 | 59 | 353 | 0.0 | 5.2 | 0.09 | 2.92 | 2.81 | 95 | 1008.6 |
| 20260502000018 | 60 | 10 | 0.9 | 3.5 | 0.04 | 2.87 | 2.76 | 95 | 1008.8 |
| 20260501234514 | 60 | 360 | 2.6 | 8.7 | 0.04 | 2.86 | 2.75 | 94 | 1008.8 |
| 20260501233013 | 60 | 328 | 1.7 | 7.0 | 0.02 | 2.84 | 2.73 | 94 | 1008.1 |
| 20260501231511 | 61 | 326 | 0.9 | 5.2 | 0.01 | 2.83 | 2.72 | 94 | 1008.0 |
| 20260501230014 | 61 | 323 | 0.9 | 5.2 | 0.01 | 2.83 | 2.72 | 94 | 1008.1 |
| 20260501224510 | 61 | 292 | 0.0 | 7.0 | 0.01 | 2.82 | 2.71 | 94 | 1008.6 |
| 20260501223009 | 61 | 331 | 1.7 | 5.2 | 0.03 | 2.82 | 2.71 | 94 | 1008.4 |
| 20260501221509 | 61 | 11 | 1.7 | 4.3 | 0.09 | 2.82 | 2.71 | 95 | 1008.9 |
| 20260501220006 | 61 | 319 | 0.9 | 3.5 | 0.14 | 2.82 | 2.71 | 95 | 1008.8 |
| 20260501214506 | 62 | 4 | 0.0 | 3.5 | 0.17 | 2.81 | 2.70 | 95 | 1008.8 |
| 20260501213005 | 62 | 304 | 0.9 | 5.2 | 0.23 | 2.78 | 2.67 | 95 | 1007.1 |
| 20260501211505 | 62 | 78 | 0.0 | 5.2 | 0.32 | 2.72 | 2.61 | 95 | 1008.5 |
| 20260501210003 | 62 | 323 | 0.9 | 2.6 | 0.44 | 2.67 | 2.56 | 95 | 1008.2 |
| 20260501204502 | 63 | 349 | 0.9 | 6.1 | 0.78 | 2.63 | 2.52 | 95 | 1007.8 |
| 20260501203002 | 63 | 10 | 0.9 | 6.1 | 0.92 | 2.54 | 2.43 | 95 | 1007.2 |
| 20260501201502 | 63 | 323 | 0.0 | 6.1 | 0.80 | 2.39 | 2.27 | 95 | 1007.4 |
| 20260501200005 | 63 | 349 | 1.7 | 4.3 | 0.64 | 2.23 | 2.12 | 95 | 1006.9 |
| 20260501194609 | 63 | 188 | 0.9 | 2.6 | 0.26 | 1.85 | 1.74 | 95 | 1006.8 |
| 20260501193100 | 63 | 307 | 0.9 | 4.3 | 0.03 | 1.62 | 1.51 | 95 | 1006.5 |
| 20260501191559 | 63 | 9 | 1.7 | 7.0 | 0.00 | 1.59 | 1.48 | 94 | 1007.1 |
| 20260501190057 | 63 | 79 | 0.0 | 2.6 | 0.00 | 1.59 | 1.48 | 95 | 1007.8 |
| 20260501184557 | 63 | 299 | 0.0 | 3.5 | 0.00 | 1.59 | 1.48 | 95 | 1007.7 |
| 20260501183057 | 63 | 292 | 1.7 | 7.8 | 0.00 | 1.59 | 1.48 | 94 | 1007.1 |